ONEWEB-0307 (49189 NORAD) Tracking and Keplerian Element Data

This shows tracking and keplerian element data for the satellite.

Feedback or suggestion? Click here.




ElementValue
Catalog49189
NameONEWEB-0307
Epoch Orbit779
Epoch Day300.83334491
Epoch Year2021
RAAN312.998
Inclination87.1991
Eccentricity0.0019844
Argument of Perigee138.6827
Mean Anonmoly160.5153
Mean Motion14.87071844
Decay Rate0.00030266
L11 49189U 21083D 21300.83334491 .00030266 00000-0 33496-2 0 9990
L22 49189 87.1991 312.9980 0019844 138.6827 160.5153 14.87071844 7799

Live tracking and technical data element details for ONEWEB-0307 (NORAD 49189). ONEWEB-0307 can be tracked NOW for your location showing map with azimuth and elevation plus other details from your city location.

Track the satellite on the map from your city or location and see movement details for azimuth, elevation, latitude, longitude, range, height, and movement on the map or in text.







IsCatalogInMostPopularTable: catalog: 49189, numindb: 12
Update: records affected: 1



GetName: 49189 ONEWEB-0307

Hit Count: updated at: Thu, 28 Oct 2021 11:31:40 GMT